Wind_Speed
8 8 7 6 5 5 5 5 4 3 2 2 2 3 3 2 2 1 1 1 2 2 2 3 4 4 5 5 6 6 7 7 7 6 6 6 6 6 5 5 5 4 4
8 7 6 6 6 5 4 4 4 3 2 2 1 2 2 2 1 1 1 1 1 2 1 2 4 4 4 5 5 6 7 7 8 7 7 7 7 7 7 6 6 6 5
8 7 6 6 6 5 4 4 4 3 3 2 2 1 1 1 1 1 1 1 1 2 2 2 3 3 4 4 4 5 6 7 8 8 8 8 8 8 8 8 8 7 7
10 8 7 6 6 5 5 5 5 4 4 3 2 1 1 1 1 1 1 1 1 2 2 3 3 3 4 4 4 5 6 7 7 8 8 8 8 8 8 8 8 8 8
11 9 8 7 6 5 6 6 6 5 5 4 3 2 1 1 1 2 2 2 2 2 2 2 2 3 3 4 4 5 5 6 7 7 8 8 8 8 9 9 9 9 9
13 11 9 9 7 6 7 7 7 6 5 5 4 3 2 2 1 2 2 3 3 3 2 2 2 2 3 3 4 5 5 6 6 7 7 8 8 9 9 9 10 10 9
14 13 12 10 9 7 7 7 8 7 6 6 5 4 3 2 2 3 3 3 3 3 3 3 3 2 2 2 3 4 4 5 6 6 6 7 7 8 8 9 9 10 10
15 14 13 12 10 8 8 8 8 8 7 7 6 5 4 4 3 3 3 3 3 3 3 3 3 3 2 2 2 2 3 3 4 5 5 6 6 7 8 9 9 9 10
16 15 13 12 11 10 8 8 9 8 8 8 7 6 5 4 4 3 3 3 3 3 2 2 2 2 2 2 1 1 2 2 3 5 6 6 6 6 7 7 8 9 10
16 16 15 13 12 11 9 9 9 9 9 9 8 7 6 5 5 4 4 3 3 3 2 2 1 1 1 1 1 1 1 2 2 3 5 6 6 7 7 8 9 10 10
16 16 16 15 14 12 11 10 10 11 10 10 9 8 7 7 6 5 5 4 4 4 3 2 2 2 2 2 3 3 4 4 4 5 5 6 7 8 8 9 10 10 11
16 16 15 16 16 14 13 12 12 12 12 11 10 9 9 8 7 6 6 6 6 5 5 5 4 4 4 5 5 5 6 6 7 7 7 8 9 10 10 11 11 12 12
17 17 16 16 16 15 14 14 14 13 12 12 11 11 10 10 9 9 8 8 8 8 7 7 7 7 7 8 8 8 8 8 8 9 10 10 11 11 12 13 13 14 14
18 18 18 17 17 16 16 15 15 14 13 13 13 12 12 11 12 12 11 11 11 11 11 11 10 10 10 10 10 11 11 11 12 12 13 13 13 14 14 15 15 16 17
19 19 19 19 18 17 16 16 16 16 16 15 15 14 14 13 13 14 14 13 13 13 13 14 14 14 14 14 13 14 14 14 14 15 16 16 16 17 17 18 18 18 19
19 19 19 19 19 18 17 16 17 17 17 17 17 17 16 16 16 16 16 16 16 16 16 17 16 16 17 17 17 17 18 18 18 18 19 19 19 20 20 21 21 21 22
19 19 19 19 19 19 18 18 18 18 18 18 18 18 18 18 18 18 18 18 18 18 19 19 20 20 20 20 21 21 22 22 22 22 22 22 22 23 23 23 24 24 25
20 20 19 19 19 19 19 20 20 20 20 20 19 19 20 20 21 21 21 21 21 21 21 22 23 23 23 23 23 24 25 25 25 26 26 26 26 26 26 27 27 28 28
19 20 20 20 20 19 19 20 21 21 21 21 21 21 22 22 23 23 24 24 24 24 24 25 25 26 26 26 26 26 27 28 28 29 29 29 29 30 30 30 30 31 31
19 19 20 21 21 21 21 21 22 22 23 23 23 23 23 24 24 25 25 26 26 27 27 27 28 28 29 29 29 30 30 30 31 32 32 33 33 33 33 33 34 34 34
19 19 20 20 21 22 22 23 22 23 24 24 24 24 25 25 25 26 26 27 28 29 30 30 30 31 31 32 32 33 33 34 34 36 36 36 37 37 37 38 38 38 39
17 19 20 21 21 21 22 23 24 25 25 25 25 25 25 26 27 28 28 29 30 31 32 32 33 33 34 36 37 37 37 37 37 39 40 39 40 40 40 41 41 41 41
17 18 19 20 21 22 23 24 25 25 25 25 26 26 26 27 29 30 31 32 33 33 34 35 35 36 37 38 39 40 40 40 39 41 42 41 42 43 43 44 44 44 45
19 20 21 22 23 23 24 24 24 24 25 26 27 28 29 30 31 32 33 34 35 36 37 38 39 39 40 41 41 42 42 42 42 44 45 45 45 46 46 47 47 48 48
20 21 22 22 23 24 23 23 24 25 26 28 28 29 30 31 33 34 35 35 37 38 40 41 42 42 43 44 44 45 45 46 46 46 48 49 48 49 49 50 51 51 51
20 21 21 23 23 24 24 24 25 26 27 29 30 31 32 33 35 36 37 38 39 40 41 42 43 44 45 46 47 48 49 50 50 50 51 53 53 53 53 53 54 54 54
Wind_Direction
241 249 251 261 258 263 268 270 267 263 249 246 260 272 273 288 292 281 257 248 245 246 240 223 214 216 219 220 221 222 220 220 221 224 227 225 224 223 223 228 227 229 234
236 246 247 247 248 255 254 244 242 243 235 222 217 232 257 273 277 297 242 226 244 238 216 201 205 211 216 214 220 226 225 225 227 231 232 231 232 234 234 235 234 236 241
227 235 241 241 244 242 233 223 221 213 208 194 184 190 238 272 268 271 231 226 238 204 187 183 195 201 208 213 219 224 225 227 230 232 232 232 234 237 239 239 239 241 246
221 226 229 232 234 227 220 218 215 205 198 190 187 188 201 245 264 232 193 166 143 155 167 178 189 199 212 214 219 226 225 227 228 229 231 233 233 236 239 239 239 245 249
217 220 221 225 224 219 218 216 211 201 193 192 198 201 200 221 183 149 147 135 128 126 134 148 174 194 209 213 222 228 227 227 227 229 232 232 234 238 241 240 243 250 254
216 218 220 219 219 218 216 210 204 202 198 199 202 199 200 202 169 150 141 131 130 127 122 118 139 178 198 209 218 223 228 226 224 229 232 234 238 239 243 245 248 253 255
215 218 219 220 222 222 217 211 206 206 204 202 200 196 192 189 173 163 150 137 132 125 116 103 102 121 163 189 203 212 222 226 226 229 230 232 236 239 245 248 249 252 253
214 215 216 219 220 218 213 211 207 207 206 202 197 191 187 182 166 158 150 145 141 137 128 111 97 101 111 141 170 204 214 221 223 224 225 230 238 245 250 251 252 252 254
212 212 213 216 217 218 214 210 208 208 204 199 196 194 192 185 177 176 169 166 166 162 153 134 113 117 118 126 138 176 212 223 228 231 235 240 242 246 251 253 252 255 258
210 212 213 214 214 215 214 211 206 206 204 201 198 197 199 197 191 193 197 198 198 195 195 188 163 148 193 207 220 225 240 245 242 246 247 246 248 250 255 258 258 259 261
210 212 214 213 212 214 212 209 207 206 206 205 203 205 207 207 206 209 217 223 222 225 232 241 256 275 279 275 269 263 265 266 262 260 261 261 262 263 264 264 266 266 267
208 209 212 211 212 214 212 210 210 210 213 213 213 215 218 218 217 221 227 234 238 243 249 257 265 274 277 277 282 283 277 272 268 269 271 272 272 272 272 270 269 268 270
209 211 212 211 213 217 217 217 215 216 220 222 222 225 229 231 231 235 239 245 249 253 257 260 266 269 273 276 279 279 279 280 278 276 277 277 277 276 275 273 272 270 270
211 214 216 216 217 220 222 220 220 224 227 230 232 234 237 241 242 244 248 252 255 258 261 264 266 268 272 275 277 279 279 279 277 277 278 278 278 278 277 277 276 274 273
215 218 219 218 219 222 224 224 228 232 235 237 239 242 245 247 249 250 253 256 258 261 262 265 268 270 272 273 276 278 280 281 279 278 278 278 278 276 275 275 276 276 275
218 221 222 221 221 223 226 229 234 238 241 242 244 246 250 252 254 256 258 260 261 263 265 266 268 271 273 273 275 277 279 280 279 278 278 278 278 277 275 274 274 274 275
221 222 223 224 225 228 231 235 238 241 244 246 247 250 254 258 259 260 262 264 265 266 268 269 268 270 273 275 275 276 276 278 278 278 278 278 279 278 277 276 275 274 274
222 224 225 226 229 232 235 238 242 243 246 247 249 253 257 260 262 264 265 266 267 267 269 271 270 270 272 273 274 275 275 275 275 276 278 278 278 278 278 277 277 276 275
226 227 227 229 231 234 237 241 245 245 247 249 252 255 259 262 265 267 267 268 269 269 270 271 272 272 272 273 274 275 276 275 276 277 277 277 277 277 277 276 277 277 276
228 231 231 233 236 239 243 245 246 248 251 254 257 260 261 264 266 268 270 271 271 271 272 273 273 274 275 276 276 276 276 276 277 277 277 276 276 276 277 276 276 276 276
232 234 236 238 240 244 248 248 248 253 256 258 261 263 265 265 266 269 270 272 273 273 273 274 274 275 276 276 277 277 277 277 278 278 276 276 275 276 276 276 276 275 274
239 238 239 241 244 248 251 252 254 258 259 261 262 263 266 267 269 271 273 274 274 274 274 275 275 276 276 277 277 278 278 278 277 277 277 276 275 275 275 275 275 275 274
243 242 244 245 248 254 257 257 258 259 260 262 263 264 266 269 271 272 273 273 274 275 276 276 276 277 278 278 278 279 279 278 277 276 276 276 275 275 274 274 274 274 273
247 249 249 251 254 257 260 260 260 259 260 262 263 266 268 271 273 274 275 275 275 275 276 277 277 278 279 279 279 279 278 278 278 277 277 276 275 275 274 274 274 273 272
256 257 257 258 260 263 264 263 264 265 266 267 268 271 273 274 275 276 276 277 277 278 278 278 278 278 279 279 279 279 279 278 278 277 277 277 275 274 274 273 273 272 271
260 261 262 261 262 263 264 266 270 270 271 271 271 273 275 277 278 278 279 279 279 279 280 279 279 279 279 279 279 279 279 279 279 278 277 277 276 276 275 274 273 272 271
Height
5889 5890 5890 5890 5890 5890 5890 5889 5889 5889 5889 5889 5889 5889 5888 5888 5888 5887 5887 5887 5887 5887 5887 5887 5887 5887 5888 5888 5889 5890 5890 5891 5892 5893 5893 5894 5894 5895 5895 5896 5896 5896 5897
5888 5889 5889 5889 5889 5889 5889 5889 5889 5889 5888 5889 5889 5889 5888 5888 5888 5887 5887 5887 5886 5886 5886 5886 5886 5887 5887 5887 5888 5888 5889 5890 5891 5891 5892 5893 5893 5894 5894 5895 5895 5896 5896
5886 5887 5887 5888 5888 5888 5888 5888 5889 5888 5888 5889 5889 5889 5888 5888 5887 5887 5886 5886 5886 5886 5886 5886 5886 5886 5886 5887 5887 5887 5888 5889 5889 5890 5890 5891 5892 5892 5893 5893 5894 5894 5895
5884 5885 5886 5887 5887 5887 5887 5888 5888 5888 5889 5889 5888 5888 5888 5888 5887 5887 5886 5886 5886 5885 5885 5885 5885 5885 5886 5886 5886 5886 5887 5887 5888 5888 5889 5889 5890 5891 5891 5892 5892 5893 5893
5882 5883 5884 5885 5886 5886 5886 5887 5888 5888 5888 5889 5889 5888 5888 5888 5888 5887 5886 5886 5886 5885 5885 5885 5885 5885 5885 5885 5885 5885 5886 5886 5886 5887 5887 5888 5888 5889 5889 5890 5891 5891 5891
5879 5881 5883 5884 5884 5885 5886 5886 5887 5888 5888 5888 5888 5888 5888 5888 5888 5887 5887 5887 5886 5886 5886 5885 5885 5885 5884 5884 5884 5884 5885 5885 5885 5885 5886 5886 5887 5887 5888 5888 5889 5889 5889
5877 5879 5881 5882 5883 5884 5885 5885 5886 5887 5888 5888 5888 5888 5888 5888 5888 5888 5887 5887 5887 5886 5886 5885 5885 5884 5884 5884 5884 5884 5884 5884 5884 5884 5885 5885 5885 5886 5886 5886 5887 5887 5887
5874 5877 5878 5880 5881 5882 5883 5884 5885 5886 5887 5887 5888 5888 5888 5889 5888 5888 5888 5888 5887 5887 5886 5885 5885 5884 5884 5884 5883 5883 5883 5883 5883 5883 5884 5884 5884 5884 5884 5884 5885 5885 5885
5872 5874 5876 5878 5879 5880 5881 5883 5884 5885 5886 5887 5887 5888 5888 5888 5888 5889 5888 5888 5887 5887 5886 5886 5885 5884 5884 5884 5883 5883 5883 5882 5882 5882 5882 5883 5883 5883 5883 5883 5883 5883 5883
5869 5871 5873 5875 5877 5879 5880 5881 5882 5883 5885 5885 5886 5887 5888 5888 5888 5888 5888 5888 5887 5887 5886 5886 5885 5885 5884 5884 5883 5883 5882 5882 5882 5881 5881 5881 5881 5881 5881 5881 5880 5880 5880
5867 5869 5871 5873 5875 5876 5878 5879 5880 5882 5883 5884 5885 5886 5886 5887 5887 5887 5887 5887 5887 5887 5886 5885 5885 5884 5884 5883 5883 5882 5882 5882 5881 5881 5880 5880 5880 5879 5879 5879 5878 5878 5877
5864 5866 5869 5871 5872 5874 5875 5877 5878 5880 5881 5882 5883 5884 5885 5885 5886 5886 5886 5886 5886 5886 5885 5884 5884 5883 5883 5882 5882 5881 5881 5880 5880 5879 5879 5878 5878 5877 5877 5876 5876 5875 5874
5862 5864 5866 5868 5870 5871 5873 5875 5876 5878 5879 5880 5881 5882 5883 5883 5884 5884 5884 5884 5884 5884 5883 5883 5882 5882 5881 5881 5880 5879 5879 5878 5878 5877 5877 5876 5876 5875 5874 5873 5873 5872 5871
5859 5861 5863 5865 5867 5869 5870 5872 5874 5875 5876 5877 5878 5879 5880 5880 5881 5881 5882 5882 5881 5881 5881 5881 5880 5879 5879 5878 5878 5877 5876 5875 5875 5874 5874 5873 5872 5871 5870 5869 5869 5868 5867
5856 5858 5860 5862 5864 5866 5867 5869 5871 5872 5873 5874 5875 5876 5876 5877 5877 5878 5878 5878 5879 5878 5878 5877 5877 5876 5875 5875 5874 5873 5873 5872 5871 5870 5870 5869 5868 5867 5866 5865 5864 5863 5862
5853 5855 5857 5859 5861 5862 5864 5866 5867 5868 5869 5870 5871 5872 5872 5873 5873 5873 5874 5874 5874 5874 5874 5873 5873 5872 5871 5871 5870 5869 5868 5867 5866 5866 5865 5864 5863 5862 5861 5860 5858 5857 5857
5849 5851 5853 5855 5857 5859 5861 5862 5863 5864 5865 5866 5866 5867 5868 5868 5868 5868 5869 5869 5869 5869 5869 5868 5868 5867 5866 5866 5865 5864 5863 5862 5861 5860 5859 5858 5857 5856 5854 5853 5852 5851 5850
5845 5848 5850 5852 5854 5855 5857 5858 5859 5860 5861 5861 5862 5862 5862 5862 5863 5863 5863 5863 5863 5863 5863 5862 5861 5861 5860 5860 5859 5857 5856 5855 5854 5853 5852 5851 5850 5848 5847 5846 5845 5843 5842
5842 5845 5846 5848 5850 5851 5852 5853 5854 5855 5856 5856 5856 5857 5857 5857 5857 5857 5857 5857 5856 5856 5856 5855 5854 5853 5853 5852 5851 5850 5849 5848 5846 5845 5844 5842 5841 5840 5839 5837 5836 5835 5834
5839 5841 5842 5844 5845 5846 5847 5848 5849 5850 5851 5851 5851 5851 5851 5851 5851 5851 5850 5850 5849 5849 5848 5847 5846 5845 5844 5844 5843 5842 5840 5839 5838 5836 5835 5833 5832 5831 5829 5828 5827 5826 5824
5835 5836 5837 5839 5840 5841 5842 5843 5843 5844 5845 5845 5845 5845 5845 5844 5844 5844 5843 5843 5842 5841 5840 5839 5838 5837 5836 5834 5833 5832 5831 5830 5828 5826 5825 5824 5822 5821 5819 5817 5816 5814 5813
5831 5831 5833 5834 5835 5836 5837 5837 5838 5839 5839 5839 5839 5839 5838 5838 5837 5837 5836 5835 5834 5833 5832 5830 5829 5828 5827 5825 5823 5822 5821 5819 5818 5816 5813 5813 5810 5809 5808 5806 5804 5802 5801
5827 5827 5828 5829 5830 5831 5831 5832 5832 5832 5832 5832 5832 5831 5831 5830 5829 5829 5828 5827 5825 5824 5823 5821 5820 5818 5816 5814 5813 5811 5809 5808 5807 5804 5801 5801 5798 5797 5795 5793 5791 5790 5788
5823 5823 5823 5824 5825 5825 5826 5825 5825 5825 5825 5825 5824 5824 5823 5822 5822 5820 5819 5818 5816 5814 5812 5811 5810 5808 5805 5803 5801 5799 5797 5795 5794 5791 5788 5788 5786 5784 5782 5780 5777 5775 5774
5818 5818 5819 5819 5819 5819 5819 5819 5819 5818 5818 5817 5816 5816 5815 5814 5812 5811 5810 5808 5806 5803 5801 5799 5798 5796 5793 5791 5788 5786 5784 5781 5780 5778 5774 5772 5771 5769 5768 5765 5762 5760 5759
5812 5812 5812 5813 5813 5813 5813 5813 5812 5811 5810 5809 5808 5807 5806 5804 5803 5801 5799 5797 5795 5793 5790 5787 5785 5783 5780 5777 5775 5772 5769 5766 5764 5763 5760 5756 5754 5752 5752 5750 5747 5744 5742